USTRANSCOM 7665


PAED
Elmendorf Air Force Base
Elmendorf, Alaska, US
KSUU
Travis Air Force Base
Fairfield, California, US

Activity Log

Date Flight Route Aircraft Duration
03/18/2019 CMB865 TED J804R MDO B453 BOXER ENI SEATO4 B752 4h 08m

Route Details

Aircraft Information
Primary: Boeing 757-200SF
Backup: Not Available
Route Data
Distance: 1728nm
Sched. Duration: 5h 09m
Avg. Duration: 4h 08m (-102m)
Times Flown: 1
Recm'd Route: TED V440 MDO J804R FRIED TR19 YZP Q801 YAZ J501 TOU ELMAA Q1 TOCOS SUTHU1
Planned Altitude: 33,000ft
Origin Wx: PAED 251056Z 33011KT 10SM BKN060 OVC075 03/M02 A3017 RMK AO2A SLP214 T00261021 $
Dest. Wx: KSUU 251058Z AUTO 24018KT 10SM OVC012 14/10 A2990 RMK AO2 SLP132 T01360102 $
Notes: USTRANSCOM CONTRACT FLIGHT

Financial History
Total Freight: 31,984lbs
Average Load: 31,984lbs/flt
Fuel Used: 31,238lbs
Avg. Fuel Used: 31,238lbs/flt
Fuel Expense: $24,990
Avg. Fuel Expense: $24,990
Avg. Fuel Cost: $0.80/lbs
Total Gross Income: $60,450
Pilot Pay: $229
Total Expenses: $6,581
Total Revenue: $27,891
Average Revenue: $60,449.76